Flag for Canada Weather past 2 weeks in Whistler, British Columbia, Canada

Now
47 °F

Cool.


Feels Like: 47 °F
Forecast: 36 / 50 °F
Wind: 1 mph from Northwest

Location: Squamish Airport


UV Index: 3 (Moderate)

Visibility: N/A


Pressure: 30.26 "Hg

Humidity: 82%

Dew point: 42 °F

Location of WhistlerLocation

Historic Weather in Whistler

°F

Whistler temperature yesterday

Maximum temperature yesterday: 50 °F (at 1:00 PM)
Minimum temperature yesterday: 40 °F (at 1:00 AM)
Average temperature yesterday: 44 °F

Past Weeks' High & Low Weather Summary

 TemperatureHumidityPressure
High67 °F (Apr 12, 5:00 PM)100% (Apr 6, 2:00 AM)30.36 "Hg (Apr 6, 2:00 AM)
Low33 °F (Apr 12, 6:00 AM)15% (Apr 12, 5:00 PM)29.64 "Hg (Apr 17, 8:00 PM)
Average47 °F78%30.06 "Hg
* Reported Apr 5 9:00 AM — Apr 20 9:00 AM, Whistler, Weather by CustomWeather, © 2014

Note: Actual official high and low records may vary slightly from our data, if they occured in-between our weather recording intervals... More about our weather records

Advertising

Historic Weather Conditions — Data for Previous 24 hours

 ConditionsComfort  
Time TempWeatherWind HumidityBarometerVisibility
9:00 AM
Apr 20
47 °FCool.1 mph80%30.26 "HgN/A
8:00 AM44 °FQuite cool.1 mph96%30.25 "HgN/A
7:00 AM42 °FQuite cool.No wind97%30.24 "HgN/A
6:00 AM41 °FQuite cool.2 mph97%30.22 "HgN/A
5:00 AM43 °FQuite cool.3 mph95%30.19 "HgN/A
4:00 AM46 °FCool.5 mph84%30.17 "HgN/A
3:00 AM44 °FQuite cool.6 mph96%30.14 "HgN/A
2:00 AM46 °FCool.7 mph89%30.11 "HgN/A
1:00 AM47 °FCool.8 mph89%30.07 "HgN/A
12:00 AM44 °FQuite cool.3 mph96%30.04 "HgN/A
11:00 PM
Apr 19
44 °FQuite cool.2 mph96%30.00 "HgN/A
10:00 PM44 °FQuite cool.1 mph96%29.98 "HgN/A
9:00 PM44 °FQuite cool.6 mph94%29.94 "HgN/A
8:00 PM44 °FQuite cool.6 mph94%29.91 "HgN/A
7:00 PM45 °FCool.6 mph93%29.89 "HgN/A
6:00 PM46 °FCool.5 mph94%29.87 "HgN/A
5:00 PM47 °FCool.5 mph91%29.85 "HgN/A
4:00 PM47 °FCool.5 mph89%29.83 "HgN/A
3:00 PM47 °FCool.6 mph88%29.82 "HgN/A
2:00 PM49 °FCool.3 mph86%29.79 "HgN/A
1:00 PM50 °FCool.No wind81%29.76 "HgN/A
12:00 PM48 °FCool.5 mph80%29.77 "HgN/A
11:00 AM46 °FCool.3 mph88%29.80 "HgN/A
10:00 AM44 °FQuite cool.2 mph92%29.80 "HgN/A
Weather by CustomWeather, © 2014

See weather overview